STARLINK-35694

Last updated on Wed Dec 10 2025 00:02:05 GMT+0000 (Coordinated Universal Time)

1 66389U 25257K 25343.11674924 .00067841 00000+0 16910-2 0 9998 2 66389 53.1601 281.4644 0000885 95.9598 264.1508 15.39618543 5810
UTC large
Height (km)
Speed (km/s)
/
Latitude / Longitude
Inclination (degrees)
Orbital Period (minutes)
Azimuth
Elevation
Range (km)
Doppler Factor

Next 0 passes for location: London (51.5072 / 0.1276)

Sorry there are no passes over London.